Time_in_sec,Latitude,Longitude,Altitude,Nbsat_max_qualitysignal,Nbsat_locked,valid_data
1314271030.60041809,-0.00007823,0.00006369,-2707.71630859,0,0,0
1314271201.55003357,-0.00007285,0.00005991,-4541.44873047,0,0,0
1314271201.60102820,-0.00007279,0.00005997,-4542.03857422,0,0,0
1314271201.64845872,-0.00007285,0.00005991,-4542.62792969,0,0,0
1314271201.69828105,-0.00007278,0.00005997,-4543.21777344,0,0,0
1314271201.74961638,-0.00007284,0.00005990,-4543.80664062,0,0,0
1314271201.80136800,-0.00007278,0.00005996,-4544.39648438,0,0,0
1314271201.84846854,-0.00007284,0.00005990,-4544.98583984,0,0,0
1314271201.90047574,-0.00007278,0.00005996,-4545.57568359,0,0,0
1314271201.94949126,-0.00007284,0.00005990,-4546.16503906,0,0,0
1314271201.99260259,-0.00007277,0.00005996,-4546.75537109,0,0,0
1314271202.04961967,-0.00007277,0.00005995,-4547.22705078,0,0,0
1314271202.10050130,-0.00007277,0.00005995,-4547.93457031,0,0,0
1314271202.14859462,-0.00007283,0.00005989,-4548.52392578,0,0,0
1314271202.20159435,-0.00007277,0.00005995,-4549.11425781,0,0,0
1314271202.24851871,-0.00007282,0.00005989,-4549.70361328,0,0,0
1314271202.30162764,-0.00007276,0.00005995,-4550.29345703,0,0,0
1314271202.35003066,-0.00007282,0.00005988,-4550.88330078,0,0,0
1314271202.40063810,-0.00007276,0.00005994,-4551.47363281,0,0,0
1314271202.44859910,-0.00007282,0.00005988,-4552.06298828,0,0,0
1314271202.50000238,-0.00007275,0.00005994,-4552.65332031,0,0,0
1314271202.54960442,-0.00007281,0.00005988,-4553.24316406,0,0,0
1314271202.60150194,-0.00007275,0.00005994,-4553.83349609,0,0,0
1314271202.64844728,-0.00007281,0.00005987,-4554.42333984,0,0,0
1314271202.70073795,-0.00007275,0.00005993,-4555.01367188,0,0,0
1314271202.74957561,-0.00007281,0.00005987,-4555.60351562,0,0,0
1314271202.80447459,-0.00007274,0.00005993,-4556.19384766,0,0,0
1314271202.84851933,-0.00007280,0.00005987,-4556.78369141,0,0,0
1314271202.89785218,-0.00007274,0.00005993,-4557.37402344,0,0,0
1314271202.94858289,-0.00007280,0.00005986,-4557.96386719,0,0,0
1314271203.00149655,-0.00007274,0.00005992,-4558.55468750,0,0,0
1314271203.05246377,-0.00007280,0.00005986,-4559.14453125,0,0,0
1314271203.10177994,-0.00007273,0.00005992,-4559.73535156,0,0,0
1314271203.14973879,-0.00007279,0.00005986,-4560.32519531,0,0,0
1314271203.20060539,-0.00007273,0.00005992,-4560.91601562,0,0,0
1314271203.25247860,-0.00007279,0.00005985,-4561.50585938,0,0,0
1314271203.30076885,-0.00007273,0.00005991,-4562.09667969,0,0,0
1314271203.35360146,-0.00007278,0.00005985,-4562.68701172,0,0,0
1314271203.40164638,-0.00007272,0.00005991,-4563.27783203,0,0,0
1314271203.45248270,-0.00007278,0.00005985,-4563.86816406,0,0,0
1314271203.50161767,-0.00007272,0.00005991,-4564.45898438,0,0,0
1314271203.54961038,-0.00007278,0.00005984,-4565.04931641,0,0,0
1314271203.60053110,-0.00007272,0.00005990,-4565.64013672,0,0,0
1314271203.64860463,-0.00007277,0.00005984,-4566.23046875,0,0,0
1314271203.70160699,-0.00007271,0.00005990,-4566.82128906,0,0,0
1314271203.74948692,-0.00007277,0.00005984,-4567.41162109,0,0,0
1314271203.80150270,-0.00007271,0.00005990,-4568.00292969,0,0,0
1314271203.84847307,-0.00007277,0.00005983,-4568.59326172,0,0,0
1314271203.88963008,-0.00007271,0.00005989,-4569.18457031,0,0,0
1314271203.94946861,-0.00007270,0.00005989,-4569.65722656,0,0,0
1314271204.00097752,-0.00007270,0.00005989,-4570.36621094,0,0,0
1314271204.04957652,-0.00007276,0.00005983,-4570.95703125,0,0,0
1314271204.10244870,-0.00007270,0.00005989,-4571.54785156,0,0,0
1314271204.14958501,-0.00007276,0.00005982,-4572.13867188,0,0,0
1314271204.20099187,-0.00007270,0.00005988,-4572.72998047,0,0,0
1314271204.24847436,-0.00007275,0.00005982,-4573.32080078,0,0,0
1314271204.30151629,-0.00007269,0.00005988,-4573.91210938,0,0,0
1314271204.35032105,-0.00007275,0.00005982,-4574.50292969,0,0,0
1314271204.40145802,-0.00007269,0.00005988,-4575.09423828,0,0,0
1314271204.44850063,-0.00007275,0.00005981,-4575.68457031,0,0,0
1314271204.48846221,-0.00007269,0.00005987,-4576.27636719,0,0,0
1314271204.55035400,-0.00007268,0.00005987,-4576.74902344,0,0,0
1314271204.60159206,-0.00007268,0.00005987,-4577.45849609,0,0,0
1314271204.64852500,-0.00007274,0.00005981,-4578.04931641,0,0,0
1314271204.70222545,-0.00007268,0.00005987,-4578.64111328,0,0,0
1314271204.74949265,-0.00007274,0.00005981,-4579.23193359,0,0,0
1314271204.80128813,-0.00007268,0.00005986,-4579.82373047,0,0,0
1314271204.84869361,-0.00007273,0.00005980,-4580.41455078,0,0,0
1314271204.89817071,-0.00007267,0.00005986,-4581.00634766,0,0,0
1314271204.94892931,-0.00007273,0.00005980,-4581.59716797,0,0,0
1314271205.00118613,-0.00007267,0.00005986,-4582.18896484,0,0,0
1314271205.05245256,-0.00007273,0.00005980,-4582.78027344,0,0,0
1314271205.10066485,-0.00007267,0.00005985,-4583.37207031,0,0,0
1314271205.15006042,-0.00007272,0.00005979,-4583.96337891,0,0,0
1314271205.20150733,-0.00007266,0.00005985,-4584.55517578,0,0,0
1314271205.24952316,-0.00007272,0.00005979,-4585.14648438,0,0,0
1314271205.30046201,-0.00007266,0.00005985,-4585.73876953,0,0,0
1314271205.34959292,-0.00007272,0.00005979,-4586.33007812,0,0,0
1314271205.40159917,-0.00007266,0.00005984,-4586.92187500,0,0,0
1314271205.44846511,-0.00007271,0.00005978,-4587.51318359,0,0,0
1314271205.50207114,-0.00007265,0.00005984,-4588.10546875,0,0,0
1314271205.54994750,-0.00007271,0.00005978,-4588.69677734,0,0,0
1314271205.58983588,-0.00007265,0.00005984,-4589.28906250,0,0,0
1314271205.64960694,-0.00007265,0.00005983,-4589.76269531,0,0,0
1314271205.70046425,-0.00007265,0.00005983,-4590.47314453,0,0,0
1314271205.74858999,-0.00007270,0.00005977,-4591.06445312,0,0,0
1314271205.80145597,-0.00007264,0.00005983,-4591.65673828,0,0,0
1314271205.84854984,-0.00007270,0.00005977,-4592.24853516,0,0,0
1314271205.90078568,-0.00007264,0.00005983,-4592.84082031,0,0,0
1314271205.94983840,-0.00007270,0.00005977,-4593.43261719,0,0,0
1314271206.00045180,-0.00007264,0.00005982,-4594.02539062,0,0,0
1314271206.04957581,-0.00007270,0.00005976,-4594.61718750,0,0,0
1314271206.10045791,-0.00007263,0.00005982,-4595.20947266,0,0,0
1314271206.14949441,-0.00007269,0.00005976,-4595.80126953,0,0,0
1314271206.20142913,-0.00007263,0.00005982,-4596.39404297,0,0,0
1314271206.24961972,-0.00007269,0.00005976,-4596.98583984,0,0,0
1314271206.30061626,-0.00007263,0.00005981,-4597.57861328,0,0,0
1314271206.34958649,-0.00007269,0.00005976,-4598.17041016,0,0,0
1314271206.40104175,-0.00007263,0.00005981,-4598.76318359,0,0,0
1314271206.44947433,-0.00007268,0.00005975,-4599.35498047,0,0,0
1314271206.50043464,-0.00007262,0.00005981,-4599.94775391,0,0,0
1314271206.54947591,-0.00007268,0.00005975,-4600.54003906,0,0,0
1314271206.60143065,-0.00007262,0.00005980,-4601.13281250,0,0,0
1314271206.65252376,-0.00007268,0.00005975,-4601.72509766,0,0,0
1314271206.70044780,-0.00007262,0.00005980,-4602.31787109,0,0,0
1314271206.74962831,-0.00007267,0.00005974,-4602.91015625,0,0,0
1314271206.79247618,-0.00007261,0.00005980,-4603.50292969,0,0,0
1314271206.84946275,-0.00007261,0.00005980,-4603.97705078,0,0,0
1314271206.90151668,-0.00007261,0.00005979,-4604.68798828,0,0,0
1314271206.94952965,-0.00007267,0.00005974,-4605.28076172,0,0,0
1314271207.00100446,-0.00007261,0.00005979,-4605.87353516,0,0,0
1314271207.05238461,-0.00007266,0.00005973,-4606.46630859,0,0,0
1314271207.10048795,-0.00007260,0.00005979,-4607.05908203,0,0,0
1314271207.14985776,-0.00007266,0.00005973,-4607.65185547,0,0,0
1314271207.20147038,-0.00007260,0.00005978,-4608.24511719,0,0,0
1314271207.24856472,-0.00007266,0.00005973,-4608.83740234,0,0,0
1314271207.30043459,-0.00007260,0.00005978,-4609.43066406,0,0,0
1314271207.35020232,-0.00007266,0.00005972,-4610.02343750,0,0,0
1314271207.40088654,-0.00007260,0.00005978,-4610.61669922,0,0,0
1314271207.44844770,-0.00007265,0.00005972,-4611.20898438,0,0,0
1314271207.50050187,-0.00007259,0.00005977,-4611.80224609,0,0,0
1314271207.54946947,-0.00007265,0.00005972,-4612.39501953,0,0,0
1314271207.60149646,-0.00007259,0.00005977,-4612.98876953,0,0,0
1314271207.64852071,-0.00007265,0.00005972,-4613.58154297,0,0,0
1314271207.69818830,-0.00007259,0.00005977,-4614.17480469,0,0,0
1314271207.74850321,-0.00007264,0.00005971,-4614.76757812,0,0,0
1314271207.80094862,-0.00007258,0.00005977,-4615.36083984,0,0,0
1314271207.84848690,-0.00007264,0.00005971,-4615.95361328,0,0,0
1314271207.90155673,-0.00007258,0.00005976,-4616.54736328,0,0,0
1314271207.94984722,-0.00007264,0.00005971,-4617.14013672,0,0,0
1314271208.00155282,-0.00007258,0.00005976,-4617.73388672,0,0,0
1314271208.04857564,-0.00007264,0.00005970,-4618.32666016,0,0,0
1314271208.09906197,-0.00007257,0.00005976,-4618.92041016,0,0,0
1314271208.15012598,-0.00007263,0.00005970,-4619.51367188,0,0,0
1314271208.20050907,-0.00007257,0.00005975,-4620.10742188,0,0,0
1314271208.25251412,-0.00007263,0.00005970,-4620.70019531,0,0,0
1314271208.30148649,-0.00007257,0.00005975,-4621.29443359,0,0,0
1314271208.34972119,-0.00007263,0.00005969,-4621.88720703,0,0,0
1314271208.40059590,-0.00007257,0.00005975,-4622.48144531,0,0,0
1314271208.44859457,-0.00007262,0.00005969,-4623.07421875,0,0,0
1314271208.49790764,-0.00007256,0.00005974,-4623.66845703,0,0,0
1314271208.54993796,-0.00007262,0.00005969,-4624.26171875,0,0,0
1314271208.60130739,-0.00007256,0.00005974,-4624.85546875,0,0,0
1314271208.64844561,-0.00007262,0.00005969,-4625.44873047,0,0,0
1314271208.70059681,-0.00007256,0.00005974,-4626.04296875,0,0,0
1314271208.74949384,-0.00007262,0.00005968,-4626.63623047,0,0,0
1314271208.80084109,-0.00007256,0.00005973,-4627.23046875,0,0,0
1314271208.84848690,-0.00007261,0.00005968,-4627.82373047,0,0,0
1314271208.89788055,-0.00007255,0.00005973,-4628.41796875,0,0,0
1314271208.94846201,-0.00007261,0.00005968,-4629.01123047,0,0,0
1314271209.00052285,-0.00007255,0.00005973,-4629.60546875,0,0,0
1314271209.05026484,-0.00007261,0.00005967,-4630.19921875,0,0,0
1314271209.10049295,-0.00007255,0.00005972,-4630.79345703,0,0,0
1314271209.14978433,-0.00007260,0.00005967,-4631.38671875,0,0,0
1314271209.20092630,-0.00007254,0.00005972,-4631.98144531,0,0,0
1314271209.24961901,-0.00007260,0.00005967,-4632.57470703,0,0,0
1314271209.30046630,-0.00007254,0.00005972,-4633.16943359,0,0,0
1314271209.35362387,-0.00007260,0.00005967,-4633.76318359,0,0,0
1314271209.40048766,-0.00007254,0.00005971,-4634.35742188,0,0,0
1314271209.45090175,-0.00007260,0.00005966,-4634.95117188,0,0,0
1314271209.50049663,-0.00007254,0.00005971,-4635.54589844,0,0,0
1314271209.54964972,-0.00007259,0.00005966,-4636.13964844,0,0,0
1314271209.60048580,-0.00007253,0.00005971,-4636.73437500,0,0,0
1314271209.64852142,-0.00007259,0.00005966,-4637.32812500,0,0,0
1314271209.70150828,-0.00007253,0.00005971,-4637.92285156,0,0,0
1314271209.74958491,-0.00007259,0.00005965,-4638.51660156,0,0,0
1314271209.80151057,-0.00007253,0.00005970,-4639.11132812,0,0,0
1314271209.85247898,-0.00007258,0.00005965,-4639.70556641,0,0,0
1314271209.90078330,-0.00007252,0.00005970,-4640.29980469,0,0,0
1314271209.95243287,-0.00007258,0.00005965,-4640.89404297,0,0,0
1314271210.00094628,-0.00007252,0.00005970,-4641.48876953,0,0,0
1314271210.04875112,-0.00007258,0.00005964,-4642.08300781,0,0,0
1314271210.09835696,-0.00007252,0.00005969,-4642.67773438,0,0,0
1314271210.14950180,-0.00007258,0.00005964,-4643.27197266,0,0,0
1314271210.20146346,-0.00007252,0.00005969,-4643.86669922,0,0,0
1314271210.25252104,-0.00007257,0.00005964,-4644.46093750,0,0,0
1314271210.30082440,-0.00007251,0.00005969,-4645.05615234,0,0,0
1314271210.34979081,-0.00007257,0.00005964,-4645.65039062,0,0,0
1314271210.40102339,-0.00007251,0.00005968,-4646.24560547,0,0,0
1314271210.44951653,-0.00007257,0.00005963,-4646.83984375,0,0,0
1314271210.50155854,-0.00007251,0.00005968,-4647.43505859,0,0,0
1314271210.54847383,-0.00007257,0.00005963,-4648.02929688,0,0,0
1314271210.60148358,-0.00007251,0.00005968,-4648.62451172,0,0,0
1314271210.64848638,-0.00007256,0.00005963,-4649.21875000,0,0,0
1314271210.70148325,-0.00007250,0.00005967,-4649.81396484,0,0,0
1314271210.74946690,-0.00007256,0.00005962,-4650.40869141,0,0,0
1314271210.80045009,-0.00007250,0.00005967,-4651.00390625,0,0,0
1314271210.84850168,-0.00007256,0.00005962,-4651.59863281,0,0,0
1314271210.89808321,-0.00007250,0.00005967,-4652.19384766,0,0,0
1314271210.94945788,-0.00007256,0.00005962,-4652.78857422,0,0,0
1314271211.00086641,-0.00007249,0.00005966,-4653.38378906,0,0,0
1314271211.04846144,-0.00007255,0.00005962,-4653.97851562,0,0,0
1314271211.10049558,-0.00007249,0.00005966,-4654.57373047,0,0,0
1314271211.14951754,-0.00007255,0.00005961,-4655.16845703,0,0,0
1314271211.20044947,-0.00007249,0.00005966,-4655.76416016,0,0,0
1314271211.24850321,-0.00007255,0.00005961,-4656.35888672,0,0,0
1314271211.30044222,-0.00007249,0.00005966,-4656.95410156,0,0,0
1314271211.34846640,-0.00007254,0.00005961,-4657.54882812,0,0,0
1314271211.40092134,-0.00007248,0.00005965,-4658.14453125,0,0,0
1314271211.44845867,-0.00007254,0.00005960,-4658.73925781,0,0,0
1314271211.50052452,-0.00007248,0.00005965,-4659.33496094,0,0,0
1314271211.54995298,-0.00007254,0.00005960,-4659.93017578,0,0,0
1314271211.60101461,-0.00007248,0.00005965,-4660.52587891,0,0,0
1314271211.64944959,-0.00007254,0.00005960,-4661.12060547,0,0,0
1314271211.69818401,-0.00007248,0.00005964,-4661.71630859,0,0,0
1314271211.74848342,-0.00007254,0.00005960,-4662.31152344,0,0,0
1314271211.80148435,-0.00007247,0.00005964,-4662.90722656,0,0,0
1314271211.84864187,-0.00007253,0.00005959,-4663.50244141,0,0,0
1314271211.90045285,-0.00007247,0.00005964,-4664.09814453,0,0,0
1314271211.94844866,-0.00007253,0.00005959,-4664.69335938,0,0,0
1314271212.00056458,-0.00007247,0.00005963,-4665.28906250,0,0,0
1314271212.04851937,-0.00007253,0.00005959,-4665.88427734,0,0,0
1314271212.09779716,-0.00007247,0.00005963,-4666.48046875,0,0,0
1314271212.14958262,-0.00007253,0.00005958,-4667.07568359,0,0,0
1314271212.20124197,-0.00007246,0.00005963,-4667.67138672,0,0,0
1314271212.24844766,-0.00007252,0.00005958,-4668.26708984,0,0,0
1314271212.30172062,-0.00007246,0.00005962,-4668.86279297,0,0,0
1314271212.34949517,-0.00007252,0.00005958,-4669.45849609,0,0,0
1314271212.39246225,-0.00007246,0.00005962,-4670.05419922,0,0,0
1314271212.45249963,-0.00007246,0.00005962,-4670.53076172,0,0,0
1314271212.50167561,-0.00007246,0.00005962,-4671.24560547,0,0,0
1314271212.54960442,-0.00007252,0.00005957,-4671.84130859,0,0,0
1314271212.60049224,-0.00007245,0.00005961,-4672.43750000,0,0,0
1314271212.65248680,-0.00007251,0.00005957,-4673.03271484,0,0,0
1314271212.70048165,-0.00007245,0.00005961,-4673.62890625,0,0,0
1314271212.75244260,-0.00007251,0.00005956,-4674.22460938,0,0,0
1314271212.80150914,-0.00007245,0.00005961,-4674.82080078,0,0,0
1314271212.85247898,-0.00007251,0.00005956,-4675.41650391,0,0,0
1314271212.90046215,-0.00007245,0.00005960,-4676.01269531,0,0,0
1314271212.94861102,-0.00007251,0.00005956,-4676.60839844,0,0,0
1314271213.00054073,-0.00007244,0.00005960,-4677.20507812,0,0,0
1314271213.05243349,-0.00007250,0.00005956,-4677.80078125,0,0,0
1314271213.10047913,-0.00007244,0.00005960,-4678.39697266,0,0,0
1314271213.15040183,-0.00007250,0.00005955,-4678.99316406,0,0,0
1314271213.20045018,-0.00007244,0.00005959,-4679.58984375,0,0,0
1314271213.24952674,-0.00007250,0.00005955,-4680.18554688,0,0,0
1314271213.30045485,-0.00007244,0.00005959,-4680.78222656,0,0,0
1314271213.34951401,-0.00007250,0.00005955,-4681.37792969,0,0,0
1314271213.40131068,-0.00007243,0.00005959,-4681.97460938,0,0,0
1314271213.45248985,-0.00007249,0.00005954,-4682.57080078,0,0,0
1314271213.50149083,-0.00007243,0.00005958,-4683.16748047,0,0,0
1314271213.54990792,-0.00007249,0.00005954,-4683.76367188,0,0,0
1314271213.60043907,-0.00007243,0.00005958,-4684.36035156,0,0,0
1314271213.64959025,-0.00007249,0.00005954,-4684.95654297,0,0,0
1314271213.69887757,-0.00007243,0.00005958,-4685.55322266,0,0,0
1314271213.75024033,-0.00007249,0.00005953,-4686.14941406,0,0,0
1314271213.80046368,-0.00007242,0.00005957,-4686.74658203,0,0,0
1314271213.84852219,-0.00007248,0.00005953,-4687.34277344,0,0,0
1314271213.90149045,-0.00007242,0.00005957,-4687.93945312,0,0,0
1314271213.94843912,-0.00007248,0.00005953,-4688.53613281,0,0,0
1314271214.00048923,-0.00007242,0.00005957,-4689.13281250,0,0,0
1314271214.04959273,-0.00007248,0.00005952,-4689.72949219,0,0,0
1314271214.10005522,-0.00007242,0.00005956,-4690.32666016,0,0,0
1314271214.14960432,-0.00007248,0.00005952,-4690.92285156,0,0,0
1314271214.20090032,-0.00007241,0.00005956,-4691.52001953,0,0,0
1314271214.25249243,-0.00007247,0.00005952,-4692.11669922,0,0,0
1314271214.30046129,-0.00007241,0.00005956,-4692.71386719,0,0,0
1314271214.34845901,-0.00007247,0.00005951,-4693.31054688,0,0,0
1314271214.40043569,-0.00007241,0.00005955,-4693.90771484,0,0,0
1314271214.44960451,-0.00007247,0.00005951,-4694.50439453,0,0,0
1314271214.49795413,-0.00007241,0.00005955,-4695.10156250,0,0,0
1314271214.54947782,-0.00007247,0.00005951,-4695.69873047,0,0,0
1314271214.60060406,-0.00007240,0.00005955,-4696.29589844,0,0,0
1314271214.64844513,-0.00007247,0.00005950,-4696.89306641,0,0,0
1314271214.70143390,-0.00007240,0.00005954,-4697.49023438,0,0,0
1314271214.74073768,-0.00007246,0.00005950,-4698.08740234,0,0,0
1314271214.80060339,-0.00007246,0.00005950,-4698.56494141,0,0,0
1314271214.84857655,-0.00007246,0.00005950,-4699.28173828,0,0,0
1314271214.89781475,-0.00007240,0.00005954,-4699.87939453,0,0,0
1314271214.94959974,-0.00007246,0.00005949,-4700.47656250,0,0,0
1314271215.00058055,-0.00007240,0.00005953,-4701.07421875,0,0,0
1314271215.04845953,-0.00007246,0.00005949,-4701.67138672,0,0,0
1314271215.10102558,-0.00007239,0.00005953,-4702.26904297,0,0,0
1314271215.14970922,-0.00007246,0.00005949,-4702.86621094,0,0,0
1314271215.20046997,-0.00007239,0.00005953,-4703.46435547,0,0,0
1314271215.24962354,-0.00007245,0.00005949,-4704.06152344,0,0,0
1314271215.30446887,-0.00007239,0.00005952,-4704.65917969,0,0,0
1314271215.35362267,-0.00007245,0.00005948,-4705.25634766,0,0,0
1314271215.40058374,-0.00007239,0.00005952,-4705.85449219,0,0,0
1314271215.45246577,-0.00007245,0.00005948,-4706.45214844,0,0,0
1314271215.50051713,-0.00007238,0.00005952,-4707.04980469,0,0,0
1314271215.54947782,-0.00007245,0.00005948,-4707.64746094,0,0,0
1314271215.60044074,-0.00007238,0.00005951,-4708.24560547,0,0,0
1314271215.64046979,-0.00007245,0.00005947,-4708.84277344,0,0,0
1314271215.70297551,-0.00007244,0.00005947,-4709.32128906,0,0,0
1314271215.74854612,-0.00007244,0.00005947,-4710.03857422,0,0,0
1314271215.80139780,-0.00007238,0.00005951,-4710.63671875,0,0,0
1314271215.84955263,-0.00007244,0.00005947,-4711.23437500,0,0,0
1314271215.90049314,-0.00007238,0.00005950,-4711.83251953,0,0,0
1314271215.94970131,-0.00007244,0.00005946,-4712.43017578,0,0,0
1314271216.00056195,-0.00007237,0.00005950,-4713.02832031,0,0,0
1314271216.04955125,-0.00007244,0.00005946,-4713.62597656,0,0,0
1314271216.09840918,-0.00007237,0.00005949,-4714.22412109,0,0,0
1314271216.14954805,-0.00007244,0.00005946,-4714.82226562,0,0,0
1314271216.20057511,-0.00007237,0.00005949,-4715.42041016,0,0,0
1314271216.24845171,-0.00007243,0.00005945,-4716.01806641,0,0,0
1314271216.30045223,-0.00007237,0.00005949,-4716.61669922,0,0,0
1314271216.35030437,-0.00007243,0.00005945,-4717.21435547,0,0,0
1314271216.40079880,-0.00007236,0.00005948,-4717.81298828,0,0,0
1314271216.44848633,-0.00007243,0.00005945,-4718.41064453,0,0,0
1314271216.50044513,-0.00007236,0.00005948,-4719.00927734,0,0,0
1314271216.54846764,-0.00007243,0.00005944,-4719.60742188,0,0,0
1314271216.60044670,-0.00007236,0.00005948,-4720.20556641,0,0,0
1314271216.64845061,-0.00007242,0.00005944,-4720.80371094,0,0,0
1314271216.70044184,-0.00007236,0.00005947,-4721.40185547,0,0,0
1314271216.75018191,-0.00007242,0.00005944,-4722.00000000,0,0,0
1314271216.80045414,-0.00007236,0.00005947,-4722.59863281,0,0,0
1314271216.85008168,-0.00007242,0.00005943,-4723.19677734,0,0,0
1314271216.89812994,-0.00007235,0.00005947,-4723.79541016,0,0,0
1314271216.94943666,-0.00007242,0.00005943,-4724.39355469,0,0,0
1314271217.00146770,-0.00007235,0.00005946,-4724.99218750,0,0,0
1314271217.04847336,-0.00007242,0.00005942,-4725.59033203,0,0,0
1314271217.10144186,-0.00007235,0.00005946,-4726.18896484,0,0,0
1314271217.15001893,-0.00007241,0.00005942,-4726.78710938,0,0,0
1314271217.20083737,-0.00007235,0.00005945,-4727.38574219,0,0,0
1314271217.24960446,-0.00007241,0.00005942,-4727.98388672,0,0,0
1314271217.30492878,-0.00007234,0.00005945,-4728.58300781,0,0,0
1314271217.34960318,-0.00007241,0.00005941,-4729.18115234,0,0,0
1314271217.40051341,-0.00007234,0.00005945,-4729.78027344,0,0,0
1314271217.45248652,-0.00007241,0.00005941,-4730.37841797,0,0,0
1314271217.50114489,-0.00007234,0.00005944,-4730.97753906,0,0,0
1314271217.54987884,-0.00007241,0.00005941,-4731.57568359,0,0,0
1314271217.60047483,-0.00007234,0.00005944,-4732.17480469,0,0,0
1314271217.64846587,-0.00007240,0.00005940,-4732.77294922,0,0,0
1314271217.69874310,-0.00007233,0.00005944,-4733.37207031,0,0,0
1314271217.74961591,-0.00007240,0.00005940,-4733.97070312,0,0,0
1314271217.80152702,-0.00007233,0.00005943,-4734.56982422,0,0,0
1314271217.84845281,-0.00007240,0.00005940,-4735.16845703,0,0,0
1314271217.90134811,-0.00007233,0.00005943,-4735.76757812,0,0,0
1314271217.94853258,-0.00007240,0.00005939,-4736.36621094,0,0,0
1314271218.00175929,-0.00007233,0.00005943,-4736.96533203,0,0,0
1314271218.04858160,-0.00007239,0.00005939,-4737.56396484,0,0,0
1314271218.10199165,-0.00007233,0.00005942,-4738.16308594,0,0,0
1314271218.14947796,-0.00007239,0.00005938,-4738.76220703,0,0,0
1314271218.20112872,-0.00007232,0.00005942,-4739.36132812,0,0,0
1314271218.25248480,-0.00007239,0.00005938,-4739.95996094,0,0,0
1314271218.30048108,-0.00007232,0.00005941,-4740.55957031,0,0,0
1314271218.34948540,-0.00007239,0.00005938,-4741.15820312,0,0,0
1314271218.40047336,-0.00007232,0.00005941,-4741.75781250,0,0,0
1314271218.44859052,-0.00007239,0.00005937,-4742.35693359,0,0,0
1314271218.50169730,-0.00007232,0.00005941,-4742.95605469,0,0,0
1314271218.54952168,-0.00007238,0.00005937,-4743.55517578,0,0,0
1314271218.60147500,-0.00007232,0.00005940,-4744.15478516,0,0,0
1314271218.65245938,-0.00007238,0.00005937,-4744.75341797,0,0,0
1314271218.70112634,-0.00007231,0.00005940,-4745.35302734,0,0,0
1314271218.74958372,-0.00007238,0.00005936,-4745.95214844,0,0,0
1314271218.80050802,-0.00007231,0.00005940,-4746.55175781,0,0,0
1314271218.84859467,-0.00007238,0.00005936,-4747.15087891,0,0,0
1314271218.90143752,-0.00007231,0.00005939,-4747.75048828,0,0,0
1314271218.94859695,-0.00007238,0.00005936,-4748.34960938,0,0,0
1314271219.00126672,-0.00007231,0.00005939,-4748.94921875,0,0,0
1314271219.04846048,-0.00007237,0.00005935,-4749.54833984,0,0,0
1314271219.10128498,-0.00007230,0.00005938,-4750.14794922,0,0,0
1314271219.14847469,-0.00007237,0.00005935,-4750.74755859,0,0,0
1314271219.20131230,-0.00007230,0.00005938,-4751.34716797,0,0,0
1314271219.24851274,-0.00007237,0.00005934,-4751.94628906,0,0,0
1314271219.29830527,-0.00007230,0.00005938,-4752.54638672,0,0,0
1314271219.34960079,-0.00007237,0.00005934,-4753.14599609,0,0,0
1314271219.40145612,-0.00007230,0.00005937,-4753.74560547,0,0,0
